Regional Weather Roundup
Issued by NWS Memphis, TN

Home | Current Version | Previous Version | Text Only | Print | Product List | Glossary On
Versions: 1 2 3 4 5 6 7 8 9 10 11 12 13 14 15 16 17 18 19 20 21 22 23 24 25 26 27 28 29 30 31 32 33 34 35 36 37 38 39 40 41 42 43 44 45 46 47 48 49 50
000
ASUS44 KMEG 012110
RWRMEG
MEMPHIS CWA HOURLY WEATHER ROUNDUP
NATIONAL WEATHER SERVICE MEMPHIS TN
400 PM CDT TUE SEP 01 2015

...WEST TENNESSEE...

CITY           SKY/WX    TMP DP  RH WIND       PRES   REMARKS
MEMPHIS INTL   PTSUNNY   91  63  39 SE8       30.05F HX  92
NWS MEMPHIS      N/A     89 N/A N/A MISG        N/A
JACKSON        MOSUNNY   88  67  49 CALM      30.07F HX  91
LEXINGTON      PTSUNNY   88  66  48 CALM      30.08S HX  90
DYERSBURG      PTSUNNY   88  70  55 E5        30.07F HX  92
UNION CITY     MOSUNNY   90  70  51 VRB3      30.06F HX  95
PARIS          SUNNY     86  66  51 E6        30.09F


...EASTERN ARKANSAS...

CITY           SKY/WX    TMP DP  RH WIND       PRES   REMARKS
JONESBORO      PTSUNNY   87  67  51 SE5       30.05F HX  90
WEST MEMPHIS   MOSUNNY   90  68  48 CALM      30.03F HX  94
BATESVILLE     CLOUDY    88  73  62 SE5       30.05F HX  96
NEWPORT        CLOUDY    88  74  63 E7        30.06F HX  96
WALNUT RIDGE   PTSUNNY   90  68  48 SE6       30.04F HX  93
BLYTHEVILLE    MOSUNNY   90  69  50 VRB3      30.06F HX  94
SEARCY         CLOUDY    91  70  49 CALM      30.05F HX  96
STUTTGART      PTSUNNY   91  70  49 W5        30.04F HX  97
PINE BLUFF     PTSUNNY   92  64  39 CALM      30.03F HX  93
MONTICELLO     CLOUDY    91  67  44 CALM      30.03F HX  94


...NORTH MISSISSIPPI...

CITY           SKY/WX    TMP DP  RH WIND       PRES   REMARKS
TUPELO         MOSUNNY   87  67  51 CALM      30.06F HX  90
OXFORD         MOSUNNY   86  68  54 E6        30.08S
OLIVE BRANCH   PTSUNNY   88  68  51 CALM      30.06F HX  91
TUNICA         PTSUNNY   88  70  55 E5        30.06S HX  92
CLARKSDALE     PTSUNNY   90  72  55 NE5       30.04F HX  96
CORINTH        MOSUNNY   88  68  51 S5        30.07F HX  91
GREENWOOD      MOSUNNY   94  66  39 VRB3      30.02F HX  97
COLUMBUS       MOSUNNY   88  68  50 NE6       30.04F HX  92
STARKVILLE     FAIR      90  64  43 NE3       30.05S HX  91
GOLDEN TRIANGL MOSUNNY   90  64  43 NE9       30.05F HX  91


...SOUTHEAST MISSOURI...

CITY           SKY/WX    TMP DP  RH WIND       PRES   REMARKS
WEST PLAINS    MOSUNNY   84  68  58 S9        30.10F
POPLAR BLUFF   MOSUNNY   88  68  51 CALM      30.06F HX  91
CAPE GIRARDEAU PTSUNNY   87  70  56 VRB6      30.06F HX  92


...NORTHWEST ALABAMA...

CITY           SKY/WX    TMP DP  RH WIND       PRES   REMARKS
MUSCLE SHOALS  MOSUNNY   87  66  49 VRB3      30.09F


...MIDDLE TENNESSEE...

CITY           SKY/WX    TMP DP  RH WIND       PRES   REMARKS
NASHVILLE      CLOUDY    88  64  44 E3        30.09F
CLARKSVILLE    PTSUNNY   89  64  43 SW7       30.07F HX  90
COLUMBIA       SUNNY     88  70  55 CALM      30.08F HX  92


...WESTERN KENTUCKY...

CITY           SKY/WX    TMP DP  RH WIND       PRES   REMARKS
PADUCAH        MOSUNNY   89  65  44 SE3       30.06F HX  91
FORT CAMPBELL  PTSUNNY   89  65  44 CALM      30.08F HAZE    HX  91


...CENTRAL ARKANSAS...

CITY           SKY/WX    TMP DP  RH WIND       PRES   REMARKS
LITTLE ROCK    PTSUNNY   91  62  37 S8        30.04F HX  91


SKY/WX REPORTED AS FAIR MEANS FEW OR NO CLOUDS BELOW
12 THOUSAND FEET.



USA.gov is the U.S. government's official web portal to all federal, state and local government web resources and services.